| time (UTC) | temp C | wind direction | speed KPH | gust KPH | rain 1hr cm | rain 24hr cm | rain mn cm | humidity % | barometer mb |
| 20260506195710 | 28 | 306 | 0.0 | 3.2 | 0.00 | 0.00 | 0.00 | 82 | 1009.6 |
| 20260506195207 | 28 | 139 | 3.2 | 4.8 | 0.00 | 0.00 | 0.00 | 82 | 1009.6 |
| 20260506194704 | 28 | 119 | 1.6 | 3.2 | 0.00 | 0.00 | 0.00 | 81 | 1009.7 |
| 20260506194200 | 28 | 167 | 3.2 | 4.8 | 0.00 | 0.00 | 0.00 | 80 | 1009.6 |
| 20260506193658 | 28 | 192 | 3.2 | 9.7 | 0.00 | 0.00 | 0.00 | 81 | 1009.9 |
| 20260506193155 | 28 | 177 | 6.4 | 6.4 | 0.00 | 0.00 | 0.00 | 81 | 1009.7 |
| 20260506192652 | 28 | 71 | 0.0 | 3.2 | 0.00 | 0.00 | 0.00 | 81 | 1009.9 |
| 20260506192148 | 28 | 252 | 1.6 | 3.2 | 0.00 | 0.00 | 0.00 | 80 | 1009.8 |
| 20260506191645 | 28 | 246 | 1.6 | 4.8 | 0.00 | 0.00 | 0.00 | 80 | 1009.8 |
| 20260506191141 | 28 | 115 | 4.8 | 4.8 | 0.00 | 0.00 | 0.00 | 80 | 1010.0 |
| 20260506190638 | 28 | 165 | 1.6 | 4.8 | 0.00 | 0.00 | 0.00 | 81 | 1010.1 |
| 20260506190135 | 28 | 201 | 6.4 | 6.4 | 0.00 | 0.00 | 0.00 | 81 | 1010.1 |
| 20260506185632 | 28 | 114 | 3.2 | 4.8 | 0.00 | 0.00 | 0.00 | 81 | 1010.2 |
| 20260506185128 | 28 | 140 | 3.2 | 6.4 | 0.00 | 0.00 | 0.00 | 80 | 1010.2 |
| 20260506184626 | 28 | 236 | 1.6 | 4.8 | 0.00 | 0.00 | 0.00 | 80 | 1010.3 |
| 20260506184123 | 28 | 203 | 1.6 | 3.2 | 0.00 | 0.00 | 0.00 | 80 | 1010.5 |
| 20260506183619 | 29 | 238 | 1.6 | 3.2 | 0.00 | 0.00 | 0.00 | 80 | 1010.2 |
| 20260506183115 | 28 | 117 | 1.6 | 4.8 | 0.00 | 0.00 | 0.00 | 80 | 1010.4 |
| 20260506182613 | 28 | 127 | 3.2 | 3.2 | 0.00 | 0.00 | 0.00 | 80 | 1010.5 |
| 20260506182110 | 28 | 135 | 3.2 | 4.8 | 0.00 | 0.00 | 0.00 | 80 | 1010.6 |
| 20260506181608 | 28 | 232 | 1.6 | 3.2 | 0.00 | 0.00 | 0.00 | 81 | 1010.7 |
| 20260506181105 | 28 | 233 | 1.6 | 3.2 | 0.00 | 0.00 | 0.00 | 81 | 1010.8 |
| 20260506180601 | 28 | 204 | 0.0 | 3.2 | 0.00 | 0.00 | 0.00 | 81 | 1010.7 |
| 20260506180058 | 28 | 150 | 1.6 | 3.2 | 0.00 | 0.00 | 0.00 | 82 | 1010.8 |
| 20260506175554 | 28 | 338 | 0.0 | 3.2 | 0.00 | 0.00 | 0.00 | 83 | 1010.9 |
| 20260506175050 | 27 | 357 | 0.0 | 1.6 | 0.00 | 0.00 | 0.00 | 84 | 1010.8 |
| 20260506174549 | 27 | 250 | 4.8 | 6.4 | 0.00 | 0.00 | 0.00 | 84 | 1010.8 |
| 20260506174045 | 27 | 123 | 3.2 | 4.8 | 0.00 | 0.00 | 0.00 | 83 | 1010.7 |
| 20260506173543 | 28 | 234 | 0.0 | 4.8 | 0.00 | 0.00 | 0.00 | 82 | 1010.9 |
| 20260506173039 | 28 | 267 | 0.0 | 1.6 | 0.00 | 0.00 | 0.00 | 81 | 1011.0 |
| 20260506172537 | 28 | 259 | 0.0 | 3.2 | 0.00 | 0.00 | 0.00 | 82 | 1011.0 |
| 20260506172033 | 28 | 147 | 0.0 | 4.8 | 0.00 | 0.00 | 0.00 | 82 | 1011.1 |
| 20260506171531 | 28 | 48 | 1.6 | 3.2 | 0.00 | 0.00 | 0.00 | 84 | 1011.2 |
| 20260506171028 | 27 | 273 | 0.0 | 4.8 | 0.00 | 0.00 | 0.00 | 84 | 1011.2 |
| 20260506170526 | 27 | 104 | 1.6 | 4.8 | 0.00 | 0.00 | 0.00 | 85 | 1011.3 |
| 20260506170023 | 27 | 294 | 3.2 | 4.8 | 0.00 | 0.00 | 0.00 | 88 | 1011.3 |
| 20260506165521 | 27 | 232 | 0.0 | 0.0 | 0.00 | 0.00 | 0.00 | 88 | 1011.4 |
| 20260506165017 | 27 | 237 | 0.0 | 0.0 | 0.00 | 0.00 | 0.00 | 89 | 1011.3 |
| 20260506164514 | 26 | 236 | 0.0 | 3.2 | 0.00 | 0.00 | 0.00 | 89 | 1011.3 |
| 20260506164012 | 26 | 215 | 0.0 | 3.2 | 0.00 | 0.00 | 0.00 | 90 | 1011.2 |
| 20260506163507 | 26 | 228 | 0.0 | 0.0 | 0.00 | 0.00 | 0.00 | 90 | 1011.1 |
| 20260506163003 | 26 | 263 | 0.0 | 1.6 | 0.00 | 0.00 | 0.00 | 89 | 1011.2 |
| 20260506162500 | 26 | 231 | 0.0 | 0.0 | 0.00 | 0.00 | 0.00 | 90 | 1011.2 |
| 20260506161957 | 26 | 115 | 1.6 | 1.6 | 0.00 | 0.00 | 0.00 | 89 | 1011.2 |
| 20260506161455 | 26 | 229 | 1.6 | 4.8 | 0.00 | 0.00 | 0.00 | 89 | 1011.2 |
| 20260506160952 | 26 | 258 | 0.0 | 0.0 | 0.00 | 0.00 | 0.00 | 89 | 1011.0 |
| 20260506160449 | 26 | 166 | 0.0 | 3.2 | 0.00 | 0.00 | 0.00 | 89 | 1011.2 |
| 20260506155946 | 26 | 112 | 1.6 | 3.2 | 0.00 | 0.00 | 0.00 | 89 | 1011.1 |
| 20260506155444 | 26 | 295 | 0.0 | 3.2 | 0.00 | 0.00 | 0.00 | 89 | 1011.1 |
| 20260506153610 | 26 | 260 | 0.0 | 1.6 | 0.00 | 0.00 | 0.00 | 91 | 1010.8 |
| 20260506153108 | 26 | 223 | 1.6 | 1.6 | 0.00 | 0.00 | 0.00 | 90 | 1010.7 |
| 20260506152605 | 26 | 79 | 0.0 | 0.0 | 0.00 | 0.00 | 0.00 | 90 | 1010.7 |
| 20260506152103 | 26 | 50 | 0.0 | 1.6 | 0.00 | 0.00 | 0.00 | 89 | 1010.5 |
| 20260506151600 | 26 | 141 | 1.6 | 3.2 | 0.00 | 0.00 | 0.00 | 89 | 1010.5 |
| 20260506151057 | 26 | 218 | 0.0 | 1.6 | 0.00 | 0.00 | 0.00 | 89 | 1010.7 |
| 20260506150554 | 26 | 194 | 1.6 | 3.2 | 0.00 | 0.00 | 0.00 | 89 | 1010.3 |
| 20260506150051 | 26 | 272 | 0.0 | 1.6 | 0.00 | 0.00 | 0.00 | 90 | 1010.3 |
| 20260506145547 | 26 | 244 | 0.0 | 3.2 | 0.00 | 0.00 | 0.00 | 90 | 1010.2 |
| 20260506145045 | 26 | 202 | 0.0 | 0.0 | 0.00 | 0.00 | 0.00 | 90 | 1010.1 |
| 20260506144542 | 26 | 242 | 0.0 | 4.8 | 0.00 | 0.00 | 0.00 | 90 | 1010.0 |
| 20260506144039 | 26 | 201 | 1.6 | 1.6 | 0.00 | 0.00 | 0.00 | 90 | 1009.8 |
| 20260506143536 | 26 | 203 | 0.0 | 3.2 | 0.00 | 0.00 | 0.00 | 90 | 1010.1 |
| 20260506143035 | 26 | 279 | 3.2 | 6.4 | 0.00 | 0.00 | 0.00 | 90 | 1010.2 |
| 20260506142532 | 26 | 242 | 0.0 | 0.0 | 0.00 | 0.00 | 0.00 | 90 | 1010.2 |
| 20260506142030 | 26 | 253 | 0.0 | 1.6 | 0.00 | 0.00 | 0.00 | 90 | 1010.1 |
| 20260506141528 | 26 | 233 | 0.0 | 1.6 | 0.00 | 0.00 | 0.00 | 90 | 1010.2 |
| 20260506141026 | 26 | 187 | 0.0 | 1.6 | 0.00 | 0.00 | 0.00 | 90 | 1010.2 |
| 20260506140523 | 26 | 210 | 1.6 | 3.2 | 0.00 | 0.00 | 0.00 | 90 | 1010.1 |
| 20260506140020 | 26 | 269 | 1.6 | 9.7 | 0.00 | 0.00 | 0.00 | 90 | 1010.3 |
| 20260506135517 | 26 | 173 | 4.8 | 4.8 | 0.00 | 0.00 | 0.00 | 91 | 1010.3 |
| 20260506135013 | 26 | 210 | 0.0 | 3.2 | 0.00 | 0.00 | 0.00 | 92 | 1010.3 |
| 20260506134509 | 25 | 205 | 0.0 | 0.0 | 0.00 | 0.00 | 0.00 | 92 | 1010.3 |
| 20260506134000 | 25 | 257 | 1.6 | 3.2 | 0.00 | 0.00 | 0.00 | 93 | 1010.1 |
| 20260506133458 | 25 | 258 | 0.0 | 0.0 | 0.00 | 0.00 | 0.00 | 93 | 1010.4 |
| 20260506132954 | 25 | 207 | 0.0 | 1.6 | 0.00 | 0.00 | 0.00 | 93 | 1010.4 |
| 20260506132451 | 25 | 208 | 0.0 | 0.0 | 0.00 | 0.00 | 0.00 | 93 | 1010.3 |
| 20260506131949 | 25 | 89 | 0.0 | 1.6 | 0.00 | 0.00 | 0.00 | 93 | 1010.5 |
| 20260506131445 | 25 | 201 | 1.6 | 4.8 | 0.00 | 0.00 | 0.00 | 94 | 1010.5 |
| 20260506130942 | 25 | 198 | 0.0 | 0.0 | 0.00 | 0.00 | 0.00 | 94 | 1010.3 |
| 20260506130439 | 25 | 198 | 0.0 | 1.6 | 0.00 | 0.00 | 0.00 | 94 | 1010.6 |
| 20260506125937 | 25 | 195 | 0.0 | 1.6 | 0.00 | 0.00 | 0.00 | 94 | 1010.4 |
| 20260506125435 | 25 | 213 | 0.0 | 1.6 | 0.00 | 0.00 | 0.00 | 94 | 1010.4 |
| 20260506124933 | 25 | 233 | 0.0 | 1.6 | 0.00 | 0.00 | 0.00 | 94 | 1010.3 |
| 20260506124430 | 25 | 207 | 0.0 | 1.6 | 0.00 | 0.00 | 0.00 | 94 | 1010.2 |
| 20260506123928 | 25 | 218 | 0.0 | 4.8 | 0.00 | 0.00 | 0.00 | 94 | 1010.3 |
| 20260506123426 | 25 | 188 | 0.0 | 4.8 | 0.00 | 0.00 | 0.00 | 95 | 1010.2 |
| 20260506122923 | 25 | 224 | 0.0 | 0.0 | 0.00 | 0.00 | 0.00 | 95 | 1010.0 |
| 20260506122419 | 25 | 247 | 0.0 | 1.6 | 0.00 | 0.00 | 0.00 | 95 | 1010.0 |
| 20260506121918 | 25 | 296 | 0.0 | 1.6 | 0.00 | 0.00 | 0.00 | 95 | 1010.0 |
| 20260506121414 | 25 | 203 | 0.0 | 1.6 | 0.00 | 0.00 | 0.00 | 95 | 1010.0 |
| 20260506120912 | 24 | 189 | 0.0 | 3.2 | 0.00 | 0.00 | 0.00 | 95 | 1009.9 |
| 20260506120409 | 24 | 266 | 0.0 | 1.6 | 0.00 | 0.00 | 0.00 | 95 | 1009.6 |
| 20260506115906 | 24 | 213 | 3.2 | 3.2 | 0.00 | 0.00 | 0.00 | 96 | 1009.6 |
| 20260506115404 | 24 | 225 | 1.6 | 3.2 | 0.00 | 0.00 | 0.00 | 96 | 1009.6 |
| 20260506114902 | 24 | 207 | 0.0 | 3.2 | 0.00 | 0.00 | 0.00 | 96 | 1009.6 |
| 20260506114359 | 24 | 214 | 3.2 | 4.8 | 0.00 | 0.00 | 0.00 | 96 | 1009.6 |
| 20260506113858 | 24 | 200 | 0.0 | 3.2 | 0.00 | 0.00 | 0.00 | 96 | 1009.4 |
| 20260506113355 | 24 | 185 | 0.0 | 1.6 | 0.00 | 0.00 | 0.00 | 96 | 1009.2 |
| 20260506112851 | 24 | 227 | 1.6 | 3.2 | 0.00 | 0.00 | 0.00 | 96 | 1009.3 |
| 20260506112349 | 24 | 263 | 0.0 | 0.0 | 0.00 | 0.00 | 0.00 | 96 | 1009.1 |
| 20260506111846 | 24 | 113 | 0.0 | 3.2 | 0.00 | 0.00 | 0.00 | 96 | 1009.3 |
| 20260506111344 | 24 | 228 | 0.0 | 3.2 | 0.00 | 0.00 | 0.00 | 96 | 1009.0 |
| 20260506110842 | 24 | 229 | 0.0 | 1.6 | 0.00 | 0.00 | 0.00 | 96 | 1009.2 |
| 20260506110338 | 24 | 317 | 0.0 | 0.0 | 0.00 | 0.00 | 0.00 | 96 | 1009.1 |
| 20260506105835 | 24 | 211 | 0.0 | 0.0 | 0.00 | 0.00 | 0.00 | 96 | 1009.1 |
| 20260506105332 | 24 | 221 | 0.0 | 1.6 | 0.00 | 0.00 | 0.00 | 96 | 1009.2 |
| 20260506104830 | 24 | 248 | 0.0 | 0.0 | 0.00 | 0.00 | 0.00 | 96 | 1009.2 |
| 20260506104327 | 24 | 257 | 0.0 | 0.0 | 0.00 | 0.00 | 0.00 | 96 | 1009.4 |
| 20260506103824 | 23 | 186 | 0.0 | 0.0 | 0.00 | 0.00 | 0.00 | 96 | 1009.4 |
| 20260506103322 | 23 | 194 | 0.0 | 0.0 | 0.00 | 0.00 | 0.00 | 96 | 1009.3 |
| 20260506102819 | 23 | 194 | 0.0 | 0.0 | 0.00 | 0.00 | 0.00 | 95 | 1009.3 |
| 20260506102317 | 23 | 194 | 0.0 | 0.0 | 0.00 | 0.00 | 0.00 | 95 | 1009.2 |
| 20260506101814 | 23 | 194 | 0.0 | 0.0 | 0.00 | 0.00 | 0.00 | 95 | 1009.4 |
| 20260506101310 | 23 | 194 | 0.0 | 0.0 | 0.00 | 0.00 | 0.00 | 95 | 1009.1 |
| 20260506100808 | 23 | 194 | 0.0 | 0.0 | 0.00 | 0.00 | 0.00 | 95 | 1008.8 |
| 20260506100306 | 23 | 194 | 0.0 | 0.0 | 0.00 | 0.00 | 0.00 | 95 | 1009.1 |
| 20260506095804 | 23 | 194 | 0.0 | 0.0 | 0.00 | 0.00 | 0.00 | 95 | 1009.1 |
| 20260506095301 | 24 | 194 | 0.0 | 0.0 | 0.00 | 0.00 | 0.00 | 95 | 1009.0 |
| 20260506094757 | 24 | 194 | 0.0 | 0.0 | 0.00 | 0.00 | 0.00 | 94 | 1009.0 |
| 20260506094256 | 24 | 194 | 0.0 | 1.6 | 0.00 | 0.00 | 0.00 | 94 | 1008.9 |
| 20260506093754 | 24 | 194 | 0.0 | 0.0 | 0.00 | 0.00 | 0.00 | 94 | 1008.8 |
| 20260506093251 | 24 | 206 | 0.0 | 0.0 | 0.00 | 0.00 | 0.00 | 94 | 1009.0 |
| 20260506092749 | 24 | 206 | 0.0 | 0.0 | 0.00 | 0.00 | 0.00 | 94 | 1009.2 |
| 20260506092246 | 24 | 206 | 0.0 | 0.0 | 0.00 | 0.00 | 0.00 | 94 | 1009.0 |
| 20260506091743 | 24 | 213 | 0.0 | 0.0 | 0.00 | 0.00 | 0.00 | 94 | 1008.9 |
| 20260506091241 | 24 | 224 | 0.0 | 0.0 | 0.00 | 0.00 | 0.00 | 93 | 1009.0 |
| 20260506090739 | 24 | 224 | 0.0 | 0.0 | 0.00 | 0.00 | 0.00 | 93 | 1009.3 |
| 20260506090235 | 24 | 225 | 0.0 | 0.0 | 0.00 | 0.00 | 0.00 | 93 | 1008.9 |
| 20260506085732 | 24 | 218 | 1.6 | 3.2 | 0.00 | 0.00 | 0.00 | 93 | 1009.1 |
| 20260506085228 | 25 | 274 | 0.0 | 0.0 | 0.00 | 0.00 | 0.00 | 93 | 1009.0 |
| 20260506084726 | 25 | 239 | 0.0 | 0.0 | 0.00 | 0.00 | 0.00 | 93 | 1009.1 |
| 20260506084221 | 25 | 239 | 0.0 | 0.0 | 0.00 | 0.00 | 0.00 | 93 | 1009.3 |
| 20260506083719 | 25 | 218 | 0.0 | 1.6 | 0.00 | 0.00 | 0.00 | 92 | 1009.3 |
| 20260506083216 | 25 | 221 | 0.0 | 3.2 | 0.00 | 0.00 | 0.00 | 92 | 1009.6 |
| 20260506082713 | 25 | 200 | 1.6 | 1.6 | 0.00 | 0.00 | 0.00 | 92 | 1009.4 |
| 20260506082209 | 25 | 245 | 0.0 | 1.6 | 0.00 | 0.00 | 0.00 | 92 | 1009.3 |
| 20260506081706 | 25 | 213 | 1.6 | 3.2 | 0.00 | 0.00 | 0.00 | 92 | 1009.1 |
| 20260506081203 | 25 | 130 | 1.6 | 3.2 | 0.00 | 0.00 | 0.00 | 92 | 1009.4 |
| 20260506080701 | 25 | 208 | 0.0 | 4.8 | 0.00 | 0.00 | 0.00 | 92 | 1009.4 |
| 20260506080158 | 25 | 172 | 1.6 | 3.2 | 0.00 | 0.00 | 0.00 | 91 | 1009.6 |
| 20260506073141 | 25 | 188 | 0.0 | 3.2 | 0.00 | 0.00 | 0.00 | 91 | 1009.9 |
| 20260506072638 | 25 | 137 | 3.2 | 3.2 | 0.00 | 0.00 | 0.00 | 91 | 1009.9 |
| 20260506072136 | 25 | 200 | 1.6 | 1.6 | 0.00 | 0.00 | 0.00 | 91 | 1010.0 |
| 20260506071633 | 25 | 196 | 3.2 | 4.8 | 0.00 | 0.00 | 0.00 | 91 | 1010.0 |
| 20260506071131 | 25 | 238 | 0.0 | 1.6 | 0.00 | 0.00 | 0.00 | 91 | 1010.1 |
| 20260506070627 | 25 | 228 | 1.6 | 3.2 | 0.00 | 0.00 | 0.00 | 91 | 1010.2 |
| 20260506070125 | 25 | 191 | 1.6 | 3.2 | 0.00 | 0.00 | 0.00 | 90 | 1010.1 |
| 20260506062102 | 25 | 251 | 0.0 | 4.8 | 0.00 | 0.00 | 0.00 | 90 | 1010.0 |
| 20260506061557 | 25 | 224 | 1.6 | 4.8 | 0.00 | 0.00 | 0.00 | 90 | 1010.0 |
| 20260506061055 | 25 | 272 | 0.0 | 3.2 | 0.00 | 0.00 | 0.00 | 90 | 1009.8 |
| 20260506060554 | 25 | 124 | 0.0 | 1.6 | 0.00 | 0.00 | 0.00 | 90 | 1009.9 |
| 20260506051022 | 25 | 214 | 0.0 | 3.2 | 0.00 | 0.00 | 0.00 | 89 | 1010.2 |
| 20260506050520 | 25 | 185 | 1.6 | 3.2 | 0.00 | 0.00 | 0.00 | 89 | 1010.0 |
| 20260506045011 | 25 | 230 | 0.0 | 4.8 | 0.00 | 0.00 | 0.00 | 89 | 1010.1 |
| 20260506044509 | 25 | 219 | 0.0 | 3.2 | 0.00 | 0.00 | 0.00 | 89 | 1010.1 |
| 20260506044005 | 25 | 143 | 1.6 | 3.2 | 0.00 | 0.00 | 0.00 | 89 | 1010.0 |
| 20260506043502 | 25 | 195 | 1.6 | 4.8 | 0.00 | 0.00 | 0.00 | 89 | 1009.9 |
| 20260506043000 | 25 | 203 | 3.2 | 6.4 | 0.00 | 0.00 | 0.00 | 89 | 1010.0 |
| 20260506042455 | 25 | 332 | 0.0 | 4.8 | 0.00 | 0.00 | 0.00 | 89 | 1009.9 |
| 20260506041952 | 25 | 109 | 1.6 | 3.2 | 0.00 | 0.00 | 0.00 | 89 | 1010.0 |
| 20260506041450 | 25 | 258 | 1.6 | 9.7 | 0.00 | 0.00 | 0.00 | 89 | 1010.0 |
| 20260506040947 | 25 | 135 | 0.0 | 3.2 | 0.00 | 0.00 | 0.00 | 89 | 1010.0 |
| 20260506040445 | 25 | 261 | 1.6 | 4.8 | 0.00 | 0.00 | 0.00 | 89 | 1009.8 |
| 20260506035940 | 25 | 178 | 3.2 | 6.4 | 0.00 | 0.00 | 0.00 | 89 | 1009.8 |
| 20260506035438 | 25 | 140 | 1.6 | 4.8 | 0.00 | 0.00 | 0.00 | 89 | 1010.0 |
| 20260506034934 | 25 | 226 | 3.2 | 6.4 | 0.00 | 0.00 | 0.00 | 89 | 1009.8 |
| 20260506034431 | 25 | 129 | 3.2 | 4.8 | 0.00 | 0.00 | 0.00 | 88 | 1009.8 |
| 20260506033929 | 25 | 229 | 1.6 | 4.8 | 0.00 | 0.00 | 0.00 | 88 | 1009.8 |
| 20260506033426 | 25 | 152 | 3.2 | 4.8 | 0.00 | 0.00 | 0.00 | 88 | 1009.7 |
| 20260506032922 | 25 | 204 | 1.6 | 4.8 | 0.00 | 0.00 | 0.00 | 88 | 1009.6 |
| 20260506032420 | 25 | 116 | 0.0 | 6.4 | 0.00 | 0.00 | 0.00 | 88 | 1009.8 |
| 20260506031916 | 25 | 125 | 6.4 | 9.7 | 0.00 | 0.00 | 0.00 | 89 | 1009.5 |
| 20260506031414 | 25 | 196 | 0.0 | 9.7 | 0.00 | 0.00 | 0.00 | 89 | 1009.5 |
| 20260506030911 | 25 | 236 | 1.6 | 3.2 | 0.00 | 0.00 | 0.00 | 89 | 1009.6 |
| 20260506030409 | 25 | 85 | 1.6 | 4.8 | 0.00 | 0.00 | 0.00 | 89 | 1009.6 |
| 20260506025905 | 25 | 180 | 4.8 | 6.4 | 0.00 | 0.00 | 0.00 | 89 | 1009.7 |
| 20260506025403 | 25 | 218 | 1.6 | 3.2 | 0.00 | 0.00 | 0.00 | 89 | 1009.5 |
| 20260506024859 | 25 | 173 | 1.6 | 4.8 | 0.00 | 0.00 | 0.00 | 89 | 1009.3 |
| 20260506024356 | 25 | 240 | 0.0 | 9.7 | 0.00 | 0.00 | 0.00 | 89 | 1009.4 |
| 20260506023852 | 25 | 206 | 1.6 | 3.2 | 0.00 | 0.00 | 0.00 | 89 | 1009.2 |
| 20260506023349 | 25 | 182 | 1.6 | 6.4 | 0.00 | 0.00 | 0.00 | 89 | 1009.2 |
| 20260506022846 | 25 | 163 | 1.6 | 3.2 | 0.00 | 0.00 | 0.00 | 89 | 1009.1 |
| 20260506022344 | 25 | 193 | 3.2 | 11.3 | 0.00 | 0.00 | 0.00 | 89 | 1009.1 |
| 20260506021841 | 25 | 182 | 1.6 | 3.2 | 0.00 | 0.00 | 0.00 | 89 | 1009.0 |
| 20260506021338 | 25 | 192 | 1.6 | 4.8 | 0.00 | 0.00 | 0.00 | 89 | 1008.9 |
| 20260506020835 | 25 | 184 | 0.0 | 6.4 | 0.00 | 0.00 | 0.00 | 88 | 1008.8 |
| 20260506020333 | 25 | 226 | 1.6 | 3.2 | 0.00 | 0.00 | 0.00 | 88 | 1008.9 |
| 20260506015830 | 25 | 113 | 1.6 | 1.6 | 0.00 | 0.00 | 0.00 | 88 | 1008.7 |
| 20260506015327 | 25 | 201 | 1.6 | 3.2 | 0.00 | 0.00 | 0.00 | 87 | 1008.7 |
| 20260506014824 | 25 | 160 | 1.6 | 3.2 | 0.00 | 0.00 | 0.00 | 87 | 1008.6 |
| 20260506014321 | 25 | 179 | 0.0 | 4.8 | 0.00 | 0.00 | 0.00 | 87 | 1008.5 |
| 20260506013818 | 25 | 219 | 1.6 | 4.8 | 0.00 | 0.00 | 0.00 | 87 | 1008.5 |
| 20260506013315 | 25 | 195 | 4.8 | 4.8 | 0.00 | 0.00 | 0.00 | 87 | 1008.5 |
| 20260506012811 | 25 | 244 | 1.6 | 6.4 | 0.00 | 0.00 | 0.00 | 86 | 1008.5 |
| 20260506012309 | 25 | 238 | 1.6 | 4.8 | 0.00 | 0.00 | 0.00 | 86 | 1008.4 |
| 20260506011806 | 25 | 356 | 1.6 | 3.2 | 0.00 | 0.00 | 0.00 | 86 | 1008.3 |
| 20260506011302 | 25 | 182 | 1.6 | 3.2 | 0.00 | 0.00 | 0.00 | 86 | 1008.2 |
| 20260506010800 | 25 | 233 | 4.8 | 6.4 | 0.00 | 0.00 | 0.00 | 86 | 1008.1 |
| 20260506010257 | 25 | 143 | 4.8 | 14.5 | 0.00 | 0.00 | 0.00 | 86 | 1008.0 |
| 20260506005754 | 25 | 233 | 1.6 | 3.2 | 0.00 | 0.00 | 0.00 | 86 | 1008.0 |
| 20260506005251 | 25 | 101 | 3.2 | 6.4 | 0.00 | 0.00 | 0.00 | 86 | 1007.9 |
| 20260506004747 | 26 | 122 | 1.6 | 11.3 | 0.00 | 0.00 | 0.00 | 85 | 1008.0 |
| 20260506004245 | 26 | 237 | 1.6 | 3.2 | 0.00 | 0.00 | 0.00 | 85 | 1007.7 |
| 20260506003740 | 26 | 235 | 0.0 | 4.8 | 0.00 | 0.00 | 0.00 | 85 | 1007.8 |
| 20260506003237 | 26 | 199 | 0.0 | 4.8 | 0.00 | 0.00 | 0.00 | 85 | 1007.7 |
| 20260506002734 | 26 | 238 | 1.6 | 3.2 | 0.00 | 0.00 | 0.00 | 85 | 1007.8 |
| 20260506002229 | 26 | 130 | 1.6 | 4.8 | 0.00 | 0.00 | 0.00 | 84 | 1007.9 |
| 20260506001725 | 26 | 193 | 4.8 | 14.5 | 0.00 | 0.00 | 0.00 | 84 | 1007.7 |
| 20260506001223 | 26 | 186 | 3.2 | 6.4 | 0.00 | 0.00 | 0.00 | 84 | 1007.7 |
| 20260506000720 | 26 | 340 | 3.2 | 6.4 | 0.00 | 0.00 | 0.00 | 84 | 1007.8 |
| 20260506000219 | 26 | 207 | 1.6 | 6.4 | 0.00 | 0.00 | 0.00 | 84 | 1007.9 |
| 20260505235715 | 26 | 133 | 1.6 | 6.4 | 0.00 | 0.00 | 0.00 | 84 | 1008.0 |
| 20260505235213 | 26 | 216 | 1.6 | 9.7 | 0.00 | 0.00 | 0.00 | 83 | 1007.8 |
| 20260505234709 | 26 | 200 | 1.6 | 3.2 | 0.00 | 0.00 | 0.00 | 83 | 1007.8 |
| 20260505234206 | 26 | 157 | 3.2 | 4.8 | 0.00 | 0.00 | 0.00 | 83 | 1007.8 |
| 20260505233702 | 26 | 169 | 4.8 | 11.3 | 0.00 | 0.00 | 0.00 | 83 | 1007.9 |
| 20260505233201 | 26 | 164 | 3.2 | 14.5 | 0.00 | 0.00 | 0.00 | 82 | 1008.0 |
| 20260505232658 | 26 | 245 | 3.2 | 9.7 | 0.00 | 0.00 | 0.00 | 82 | 1008.0 |
| 20260505232155 | 26 | 224 | 1.6 | 11.3 | 0.00 | 0.00 | 0.00 | 81 | 1007.9 |
| 20260505231652 | 26 | 266 | 3.2 | 6.4 | 0.00 | 0.00 | 0.00 | 82 | 1007.9 |
| 20260505231151 | 26 | 119 | 3.2 | 11.3 | 0.00 | 0.00 | 0.00 | 81 | 1007.7 |
| 20260505230649 | 26 | 235 | 1.6 | 12.9 | 0.00 | 0.00 | 0.00 | 81 | 1007.9 |
| 20260505230145 | 26 | 225 | 1.6 | 4.8 | 0.00 | 0.00 | 0.00 | 81 | 1007.9 |
| 20260505225641 | 26 | 139 | 1.6 | 4.8 | 0.00 | 0.00 | 0.00 | 81 | 1007.8 |
| 20260505225137 | 26 | 145 | 3.2 | 14.5 | 0.00 | 0.00 | 0.00 | 81 | 1008.0 |
| 20260505224633 | 26 | 74 | 6.4 | 11.3 | 0.00 | 0.00 | 0.00 | 81 | 1007.8 |
| 20260505224132 | 26 | 250 | 6.4 | 9.7 | 0.00 | 0.00 | 0.00 | 81 | 1007.8 |
| 20260505223629 | 26 | 232 | 1.6 | 3.2 | 0.00 | 0.00 | 0.00 | 82 | 1007.9 |
| 20260505223125 | 26 | 121 | 0.0 | 1.6 | 0.00 | 0.00 | 0.00 | 83 | 1007.8 |
| 20260505222621 | 26 | 269 | 3.2 | 6.4 | 0.00 | 0.00 | 0.00 | 82 | 1008.0 |
| 20260505222117 | 26 | 109 | 1.6 | 4.8 | 0.00 | 0.00 | 0.00 | 82 | 1008.1 |
| 20260505221614 | 26 | 251 | 1.6 | 4.8 | 0.00 | 0.00 | 0.00 | 83 | 1008.0 |
| 20260505221111 | 27 | 238 | 3.2 | 6.4 | 0.00 | 0.00 | 0.00 | 82 | 1008.0 |
| 20260505220609 | 26 | 206 | 0.0 | 4.8 | 0.00 | 0.00 | 0.00 | 83 | 1008.0 |
| 20260505220106 | 26 | 238 | 6.4 | 11.3 | 0.00 | 0.00 | 0.00 | 83 | 1008.1 |
| 20260505215604 | 26 | 190 | 3.2 | 12.9 | 0.00 | 0.00 | 0.00 | 82 | 1008.1 |
| 20260505215101 | 27 | 172 | 1.6 | 6.4 | 0.00 | 0.00 | 0.00 | 82 | 1008.3 |
| 20260505214554 | 27 | 190 | 6.4 | 11.3 | 0.00 | 0.00 | 0.00 | 81 | 1008.2 |
| 20260505214050 | 27 | 185 | 3.2 | 6.4 | 0.00 | 0.00 | 0.00 | 80 | 1008.4 |
| 20260505213548 | 27 | 111 | 4.8 | 9.7 | 0.00 | 0.00 | 0.00 | 79 | 1008.4 |
| 20260505213044 | 27 | 184 | 3.2 | 11.3 | 0.00 | 0.00 | 0.00 | 80 | 1008.2 |
| 20260505212541 | 27 | 221 | 3.2 | 11.3 | 0.00 | 0.00 | 0.00 | 82 | 1008.4 |
| 20260505212038 | 26 | 127 | 6.4 | 9.7 | 0.00 | 0.00 | 0.00 | 82 | 1008.3 |
| 20260505211535 | 26 | 134 | 1.6 | 11.3 | 0.00 | 0.00 | 0.00 | 83 | 1008.5 |
| 20260505211031 | 27 | 168 | 6.4 | 12.9 | 0.00 | 0.00 | 0.00 | 82 | 1008.6 |
| 20260505210528 | 27 | 53 | 3.2 | 4.8 | 0.00 | 0.00 | 0.00 | 82 | 1008.8 |
| 20260505210025 | 27 | 228 | 3.2 | 3.2 | 0.00 | 0.00 | 0.00 | 81 | 1008.5 |
| 20260505205523 | 27 | 142 | 4.8 | 6.4 | 0.00 | 0.00 | 0.00 | 81 | 1008.6 |
| 20260505205020 | 27 | 169 | 4.8 | 9.7 | 0.00 | 0.00 | 0.00 | 81 | 1008.9 |
| 20260505204518 | 27 | 207 | 0.0 | 4.8 | 0.00 | 0.00 | 0.00 | 82 | 1008.9 |
| 20260505204014 | 27 | 258 | 1.6 | 4.8 | 0.00 | 0.00 | 0.00 | 82 | 1009.0 |
| 20260505203511 | 27 | 207 | 3.2 | 9.7 | 0.00 | 0.00 | 0.00 | 82 | 1009.0 |
| 20260505203008 | 27 | 240 | 1.6 | 3.2 | 0.00 | 0.00 | 0.00 | 83 | 1009.2 |
| 20260505202504 | 27 | 155 | 3.2 | 3.2 | 0.00 | 0.00 | 0.00 | 83 | 1009.2 |
| 20260505202000 | 27 | 218 | 1.6 | 9.7 | 0.00 | 0.00 | 0.00 | 82 | 1009.4 |
| 20260505201457 | 27 | 263 | 4.8 | 6.4 | 0.00 | 0.00 | 0.00 | 81 | 1009.2 |
| 20260505200955 | 27 | 100 | 1.6 | 3.2 | 0.00 | 0.00 | 0.00 | 82 | 1009.2 |
| 20260505200452 | 27 | 255 | 3.2 | 11.3 | 0.00 | 0.00 | 0.00 | 83 | 1009.3 |